Back to catalog

NOAA 8 DEB

AlivePO
NORAD 38840·DEBRIS·🇺🇸 United States

Launched Mar 28, 1983 from Vandenberg Space Force Base

Loading…

Next Passes (next 24 hours)

TLE

FreshSource: Space-Track

Epoch: Sep 13, 2026, 10:08 UTC

1 38840U 83022M   26256.42231632  .00021010  00000-0  16211-2 0  9999
2 38840  98.3343 321.9991 0007501 198.9934 222.9286 15.01586270790041

Track NOAA 8 DEB in real time with AllMySat

Download on the App Store